Wind_Speed
3 4 5 6 7 8 9 10 11 13 14 15 16 16 17 17 17 17 16 16 16 17 17 17 17 16 16 16 15 14 13 13 12 13 14 15 16 17 18 20 21 22 23
5 5 6 7 8 10 10 11 12 14 15 16 17 17 17 17 17 17 16 16 17 17 17 17 17 17 17 17 17 17 16 16 16 16 17 17 18 19 20 21 23 24 25
6 7 8 9 10 11 12 13 14 15 16 17 17 17 18 18 18 18 17 18 18 18 18 19 19 19 19 19 20 20 20 19 19 19 20 20 21 21 22 23 25 26 27
8 9 10 11 12 13 14 14 15 16 17 17 18 19 19 19 19 19 19 20 20 21 21 20 21 21 22 22 23 23 23 23 23 23 23 23 24 24 25 25 26 27 28
10 11 12 13 14 15 16 17 18 19 19 19 20 20 20 20 20 21 21 23 23 23 23 23 24 25 25 26 27 27 28 28 27 27 27 26 27 27 28 28 28 29 30
12 13 14 15 16 17 18 19 20 20 21 21 21 22 23 23 23 24 25 25 25 26 26 27 28 29 29 30 31 32 32 32 31 31 31 30 30 30 30 30 31 32 32
15 16 16 17 18 19 20 21 22 22 23 23 24 24 25 26 26 28 28 29 29 29 30 31 32 33 34 34 35 36 36 36 36 35 35 35 34 34 34 34 34 34 35
17 18 18 20 21 21 22 23 23 24 25 25 26 27 28 29 30 31 32 32 32 33 33 34 35 37 38 39 40 40 40 40 41 41 40 39 38 38 38 38 38 38 38
20 20 21 22 23 24 24 25 26 27 27 28 29 31 32 33 34 35 35 35 36 37 38 39 40 41 42 44 44 44 44 44 44 45 44 44 43 43 42 42 42 42 41
22 23 24 25 25 26 26 28 29 30 31 32 32 34 35 36 37 37 38 38 39 40 41 43 44 45 47 48 48 48 47 47 48 48 47 47 47 47 47 47 46 46 45
25 25 26 26 27 28 29 30 31 32 33 35 35 36 38 39 40 40 41 42 42 44 45 46 47 49 50 50 51 51 51 51 51 51 50 49 49 50 49 49 49 48 48
27 27 28 29 30 31 32 33 33 34 36 37 38 39 40 41 42 43 44 45 46 47 48 50 51 52 52 53 53 53 53 53 53 53 52 51 51 52 51 50 51 50 50
29 30 31 32 33 33 34 35 36 37 38 39 40 41 43 44 45 46 47 49 50 51 51 52 53 53 54 54 54 55 55 55 55 54 53 52 52 53 53 52 52 51 50
32 33 34 34 35 36 37 38 39 40 41 42 43 44 45 46 48 49 50 52 53 53 54 55 55 55 55 56 56 56 56 56 56 55 55 54 53 52 51 51 52 51 51
34 35 36 37 38 39 40 41 41 42 43 44 45 46 48 49 50 52 53 54 55 56 57 57 57 57 57 57 58 58 57 57 57 56 55 54 53 52 50 50 51 51 51
37 38 38 39 40 41 42 43 43 44 45 47 48 49 51 52 53 54 55 57 58 59 59 59 59 60 60 60 60 59 58 58 58 56 55 54 53 51 50 50 51 51 51
39 40 41 42 43 44 44 45 45 46 48 49 51 52 53 54 55 57 58 59 60 61 61 61 62 62 62 62 61 60 59 58 57 56 55 54 53 51 50 49 48 50 50
42 43 44 45 46 46 47 47 48 49 50 51 52 54 55 56 58 59 60 61 62 63 63 63 64 64 63 62 61 60 59 58 56 56 55 54 53 52 50 48 47 48 49
45 46 47 47 47 48 49 49 50 51 52 53 54 56 57 59 60 61 63 63 64 64 65 65 65 64 64 63 62 61 59 58 57 56 54 53 52 50 49 47 47 47 47
47 48 48 48 49 50 51 52 52 53 54 55 57 58 60 61 62 63 64 65 65 66 66 66 65 65 64 63 62 61 59 58 56 55 53 52 50 49 48 47 46 46 46
48 49 49 50 51 52 52 53 54 55 56 58 59 61 62 64 65 65 66 67 67 67 67 66 66 65 64 63 61 60 58 56 54 53 52 50 49 48 46 45 44 43 44
50 51 52 53 53 53 54 55 56 58 59 61 62 63 65 66 67 67 68 68 68 68 67 67 66 64 63 61 59 57 56 54 52 51 50 48 46 45 44 43 41 39 40
53 54 55 55 55 55 56 58 59 61 62 63 65 66 66 67 68 69 69 69 69 68 66 66 64 62 61 59 58 56 54 52 50 48 46 44 42 40 40 39 37 37 37
55 55 55 56 56 57 59 60 61 63 64 66 66 67 68 68 69 69 69 69 68 67 65 63 62 60 59 57 56 54 51 49 46 45 43 42 39 37 37 36 34 34 35
56 56 57 58 59 60 61 62 63 65 66 67 67 68 68 69 69 69 69 68 66 64 62 61 60 58 57 56 54 51 48 46 44 43 42 40 37 36 36 34 34 33 34
57 58 58 59 60 61 62 64 65 66 67 67 68 68 68 69 68 68 67 66 64 62 60 59 58 57 55 53 50 47 45 44 42 42 40 38 36 35 35 34 32 32 32
Wind_Direction
306 320 329 336 341 344 345 346 347 349 350 350 350 349 349 349 350 350 349 350 352 352 353 353 352 351 349 346 342 338 331 322 313 305 299 293 285 277 268 262 258 253 249
292 304 313 323 330 334 336 339 340 341 341 342 343 343 343 343 343 343 341 340 343 343 343 344 344 343 341 340 337 333 328 321 314 307 302 296 291 284 275 268 264 258 253
283 294 302 311 319 323 327 330 332 332 333 335 336 337 337 337 337 337 335 334 335 335 335 336 337 335 333 332 330 328 324 319 314 309 304 298 292 287 281 274 269 263 257
282 290 298 304 310 314 317 320 322 324 325 327 329 330 331 331 331 330 328 329 329 327 327 328 329 327 326 325 324 322 319 315 311 307 303 299 294 288 283 276 271 265 259
282 288 295 300 305 308 311 313 315 317 319 320 323 325 325 325 325 324 322 322 322 321 321 321 321 320 319 318 318 316 314 312 308 305 301 298 295 290 284 278 273 267 263
281 288 292 296 300 304 306 309 311 314 315 317 318 319 319 319 319 319 318 317 316 315 315 315 315 315 314 314 313 312 310 308 305 302 300 298 294 291 286 280 275 269 265
281 286 290 295 299 302 304 307 309 311 312 312 313 314 314 314 314 315 314 313 311 311 310 310 310 310 311 311 310 310 308 306 304 301 298 296 293 290 285 280 276 271 267
282 286 289 293 297 300 302 305 306 307 307 307 308 309 309 310 310 310 310 310 309 308 307 307 307 307 308 308 308 307 305 304 302 300 298 295 291 288 284 280 276 272 270
282 286 289 292 295 298 301 303 304 305 305 305 305 306 307 307 308 308 307 307 307 306 305 305 306 306 307 306 305 304 302 301 300 299 297 293 290 287 283 279 276 272 270
283 286 289 292 293 296 299 301 302 303 304 304 303 304 305 306 306 306 305 305 305 304 304 304 305 306 306 306 304 302 301 299 299 297 294 291 288 285 282 279 275 272 269
284 287 289 291 292 295 297 299 300 301 302 303 303 303 303 304 304 304 304 304 304 304 303 303 304 304 304 304 303 301 300 299 298 296 292 289 287 283 280 277 275 271 268
285 287 289 291 292 294 297 298 299 300 302 303 303 302 302 302 303 304 304 304 305 304 304 304 304 304 304 303 302 301 300 299 298 295 292 288 286 283 280 276 273 270 268
285 288 289 291 292 294 296 297 298 299 301 302 302 302 302 302 302 303 303 304 304 304 304 304 305 304 303 303 302 301 300 298 297 296 293 289 286 283 280 275 272 269 267
286 288 290 291 293 294 296 297 298 299 300 301 302 303 303 303 302 303 303 304 304 304 304 304 304 304 303 303 302 301 300 299 298 296 294 291 287 284 279 274 270 266 265
286 288 290 291 293 294 295 297 297 298 299 301 302 303 303 304 304 304 304 304 304 305 304 304 304 304 304 303 302 301 300 299 298 296 294 292 288 284 279 274 270 266 264
286 289 290 292 293 294 295 296 297 298 299 301 302 303 304 304 305 305 305 305 305 305 305 304 304 304 303 303 301 300 299 298 297 295 293 291 289 284 279 274 271 268 265
287 289 290 291 292 293 295 296 297 298 299 301 302 303 304 305 305 306 306 306 306 305 304 304 304 304 303 303 301 300 299 298 296 294 292 290 287 283 279 275 271 268 265
287 289 290 291 292 292 294 295 296 297 299 301 302 303 304 304 305 306 306 307 306 306 305 304 304 303 303 302 301 299 298 296 295 293 291 289 286 283 278 274 272 269 266
287 288 290 290 291 291 293 294 296 297 299 300 301 302 303 304 305 306 307 307 307 306 305 305 304 303 303 302 301 299 298 296 294 292 290 287 285 282 278 274 271 269 266
287 287 288 289 290 291 293 294 296 297 299 300 301 302 303 304 305 306 306 306 306 306 306 305 304 303 302 301 300 299 298 296 294 292 290 286 283 280 277 274 271 267 264
286 287 288 289 291 292 294 295 296 297 299 300 301 302 303 304 305 306 306 306 306 306 306 305 305 304 303 301 300 299 298 297 294 292 289 286 283 279 276 272 270 266 262
286 287 288 290 291 292 293 295 296 297 298 300 301 302 304 305 305 306 306 306 306 306 306 305 305 304 303 302 300 298 297 296 294 291 289 287 284 279 274 270 267 262 259
286 287 289 290 290 292 293 294 296 297 299 300 302 303 303 304 305 306 306 306 306 306 305 305 305 305 303 302 301 299 297 296 293 291 290 287 282 277 272 269 264 259 256
287 288 289 289 290 292 293 295 296 298 299 300 302 302 303 304 304 306 306 306 306 306 305 305 305 304 304 302 301 299 297 294 293 291 288 286 281 274 269 267 263 258 255
287 288 289 290 291 292 294 295 297 298 299 301 301 302 303 304 304 305 306 306 306 305 305 305 304 304 303 303 301 299 295 292 291 289 287 284 278 273 267 264 261 257 253
287 288 289 290 291 293 294 295 297 298 299 300 301 302 303 304 304 305 305 306 305 305 304 304 304 303 303 302 300 297 294 291 290 289 286 280 275 271 266 262 259 253 249
Height
5877 5877 5876 5875 5874 5873 5871 5870 5868 5866 5863 5861 5858 5855 5853 5850 5848 5846 5845 5843 5841 5840 5838 5837 5835 5834 5832 5831 5830 5829 5828 5827 5826 5826 5825 5825 5825 5824 5825 5825 5826 5827 5828
5875 5875 5874 5874 5873 5871 5870 5868 5866 5864 5862 5859 5856 5854 5851 5849 5847 5845 5843 5842 5840 5838 5837 5835 5833 5832 5831 5829 5828 5826 5825 5824 5823 5822 5821 5820 5820 5819 5819 5820 5820 5821 5822
5873 5873 5872 5872 5871 5870 5868 5866 5864 5862 5859 5857 5854 5852 5849 5847 5845 5843 5841 5839 5837 5836 5834 5833 5831 5829 5828 5826 5825 5823 5821 5820 5818 5817 5816 5815 5814 5813 5813 5813 5813 5814 5815
5871 5871 5870 5869 5868 5867 5866 5864 5862 5859 5857 5854 5852 5849 5847 5844 5842 5840 5838 5836 5834 5833 5831 5829 5827 5826 5824 5822 5821 5819 5817 5815 5813 5811 5810 5808 5807 5806 5805 5805 5805 5805 5807
5868 5868 5867 5866 5865 5864 5862 5860 5858 5856 5853 5851 5848 5846 5843 5841 5839 5837 5835 5833 5830 5828 5826 5825 5823 5821 5819 5817 5815 5813 5811 5808 5806 5804 5803 5801 5799 5798 5797 5796 5796 5796 5797
5864 5864 5863 5863 5861 5860 5858 5857 5854 5852 5849 5847 5844 5842 5839 5837 5835 5832 5830 5828 5825 5823 5821 5819 5817 5815 5813 5810 5808 5805 5802 5800 5798 5796 5794 5792 5791 5789 5787 5786 5786 5787 5788
5861 5860 5859 5858 5857 5856 5854 5852 5850 5847 5845 5842 5840 5837 5834 5832 5829 5827 5824 5822 5819 5817 5814 5812 5810 5807 5805 5802 5799 5796 5793 5789 5787 5785 5783 5781 5780 5778 5777 5776 5775 5775 5777
5856 5855 5854 5853 5852 5850 5848 5846 5844 5842 5839 5837 5834 5831 5828 5826 5823 5820 5817 5814 5811 5809 5806 5804 5801 5798 5795 5792 5789 5786 5782 5778 5775 5772 5770 5768 5766 5765 5764 5763 5763 5763 5764
5851 5850 5849 5848 5846 5844 5842 5840 5838 5835 5833 5830 5827 5825 5821 5818 5815 5812 5809 5806 5803 5800 5797 5793 5790 5787 5784 5781 5777 5774 5770 5766 5762 5758 5755 5753 5751 5750 5748 5748 5748 5749 5750
5845 5844 5843 5841 5840 5838 5836 5833 5831 5828 5825 5822 5819 5816 5813 5810 5806 5803 5800 5797 5794 5790 5786 5783 5779 5775 5771 5766 5763 5758 5755 5751 5747 5744 5740 5737 5735 5733 5731 5731 5731 5732 5734
5838 5837 5836 5834 5832 5831 5828 5826 5823 5820 5817 5814 5811 5807 5804 5800 5797 5793 5789 5786 5782 5779 5775 5771 5766 5762 5757 5752 5747 5743 5738 5734 5731 5727 5723 5720 5718 5715 5714 5713 5713 5714 5716
5831 5829 5828 5826 5824 5822 5820 5817 5815 5812 5808 5805 5801 5797 5794 5790 5786 5782 5778 5774 5770 5766 5761 5757 5752 5747 5742 5737 5731 5726 5722 5717 5713 5709 5705 5702 5699 5697 5695 5695 5695 5695 5697
5823 5821 5820 5818 5816 5813 5811 5808 5805 5802 5799 5795 5791 5788 5783 5779 5775 5770 5766 5761 5756 5752 5747 5742 5737 5732 5726 5721 5715 5709 5704 5699 5694 5690 5686 5683 5680 5678 5676 5676 5676 5676 5678
5814 5812 5811 5809 5806 5804 5801 5798 5795 5792 5788 5784 5780 5776 5772 5767 5762 5758 5753 5748 5743 5738 5733 5728 5722 5716 5710 5704 5698 5692 5686 5680 5675 5671 5667 5664 5661 5659 5657 5656 5657 5658 5660
5805 5803 5801 5799 5796 5793 5790 5787 5784 5780 5776 5773 5768 5764 5760 5755 5750 5744 5739 5734 5728 5723 5717 5712 5706 5700 5694 5688 5682 5675 5669 5663 5658 5653 5648 5645 5642 5640 5638 5638 5638 5639 5641
5795 5793 5791 5788 5785 5782 5779 5776 5772 5768 5764 5760 5755 5751 5746 5741 5735 5730 5724 5718 5712 5706 5700 5695 5689 5683 5677 5671 5664 5659 5652 5646 5640 5635 5631 5627 5624 5622 5620 5620 5620 5620 5622
5784 5782 5779 5777 5774 5771 5767 5764 5760 5756 5751 5747 5742 5737 5732 5726 5721 5715 5709 5703 5696 5689 5683 5677 5671 5665 5659 5652 5646 5640 5634 5628 5622 5617 5613 5609 5606 5604 5603 5602 5602 5602 5604
5773 5770 5767 5764 5761 5758 5755 5751 5747 5743 5739 5734 5728 5723 5717 5712 5706 5699 5693 5687 5680 5673 5666 5659 5653 5646 5640 5633 5627 5621 5615 5610 5605 5600 5596 5592 5588 5586 5585 5585 5585 5585 5586
5760 5757 5754 5751 5748 5745 5741 5737 5734 5729 5725 5720 5715 5709 5702 5697 5690 5684 5676 5669 5663 5656 5649 5642 5634 5627 5621 5614 5608 5602 5597 5591 5586 5582 5577 5574 5570 5568 5567 5567 5567 5567 5568
5747 5744 5741 5738 5734 5731 5727 5723 5719 5715 5710 5705 5700 5694 5688 5682 5675 5668 5660 5652 5645 5638 5631 5624 5616 5609 5602 5595 5589 5583 5578 5572 5567 5563 5559 5555 5552 5550 5549 5549 5549 5550 5551
5733 5730 5727 5724 5720 5717 5713 5709 5704 5700 5695 5690 5684 5678 5671 5665 5658 5651 5644 5636 5628 5620 5612 5605 5598 5591 5583 5576 5570 5564 5559 5554 5549 5544 5540 5537 5535 5533 5531 5531 5532 5532 5534
5719 5716 5712 5709 5705 5702 5698 5693 5689 5684 5679 5673 5668 5661 5654 5647 5640 5633 5625 5618 5609 5601 5593 5586 5579 5572 5564 5557 5551 5545 5540 5536 5531 5526 5523 5520 5518 5516 5515 5515 5516 5516 5518
5704 5701 5697 5694 5690 5686 5682 5677 5672 5667 5662 5656 5650 5644 5637 5629 5622 5614 5607 5599 5591 5583 5575 5567 5560 5553 5546 5539 5533 5527 5522 5518 5513 5509 5506 5504 5502 5500 5500 5500 5501 5503 5504
5688 5685 5681 5678 5674 5670 5665 5661 5655 5650 5644 5638 5632 5625 5618 5611 5603 5596 5588 5580 5572 5565 5557 5549 5542 5536 5529 5523 5516 5511 5505 5501 5497 5494 5491 5489 5487 5486 5486 5487 5488 5489 5491
5672 5668 5665 5661 5657 5653 5648 5643 5638 5632 5626 5620 5613 5606 5599 5592 5585 5577 5569 5562 5554 5547 5540 5532 5525 5519 5513 5507 5501 5495 5490 5486 5482 5478 5476 5474 5473 5473 5473 5474 5475 5477 5479
5655 5652 5648 5644 5640 5635 5630 5625 5620 5614 5607 5601 5594 5587 5580 5573 5566 5559 5551 5543 5536 5529 5523 5516 5509 5503 5496 5490 5485 5480 5475 5472 5468 5464 5462 5460 5460 5460 5460 5461 5463 5465 5467